Location: Asheville, NC
(35.6000°N, 82.5500°W)
Time: 22:46:17
(UTC-04:00)

Iridium 28 - Pass Details

Date: 11 January 2018
Orbit: 771 x 774 km, 86.4° (Epoch: 26 April)

Event Time Altitude Azimuth Distance (km) Brightness Sun altitude
Rises 06:17:54 0° 176° (S) 3,228 9.0 -16.4°
Reaches altitude 10° 06:20:14 10° 175° (S) 2,304 8.2 -16.0°
Maximum altitude 06:25:22 77° 91° (E) 794 5.7 -14.9°
Drops below altitude 10° 06:30:33 10° 5° (N) 2,318 7.9 -13.9°
Sets 06:32:54 0° 4° (N) 3,249 8.6 -13.5°
